Погода в Урмане

Россия / Республика Башкортостан     54°52′15″N   56°52′13″E
темп.,
°C
ветер,
м/с
пор.,
м/с
влажн.,
%
обл.,
%
осадки,
мм/ч
давл.,
гПа
погр.,
м
23 октября, сб
сб2323:00+8юз71679100 0.0 1005661
02:00+9юз7148372 0.2 1006673
05:00+8юз7148853 0.2 1007540
08:00+8юз7139232 0.0 1008447
11:00+9юз7138492 0.1 1010761
14:00+12зюз8156519 0.6 10111580
17:00+12зюз6116148 1.0 1011657
20:00+9юз41175100 0.1 1013308
24 октября, вс
вс2423:00+8юз4108380 0.1 1014267
02:00+7ююз3892100 0.0 1014176
05:00+7ю3691100 0.0 1013155
08:00+7вюв2392100 0.9 101083
11:00+9ююз81688100 5.9 10071019
14:00+6зсз51088100 2.0 1010590
17:00+6з4882100 2.0 1012948
20:00+5юз3890100 0.1 1013249
25 октября, пн
пн2523:00+4зюз378884 0.3 1014188
02:00+3юз348888 0.0 101567
05:00+2ююз2290100 0.0 101536
08:00+2ююв2390100 0.0 101567
11:00+4ююз2481100 0.0 1015261
14:00+4юз1386100 0.0 1014410
17:00+5зюз127686 0.1 101444
20:00+4з368198 0.0 1015434
26 октября, вт
вт2623:00+2сз7119699 0.3 1016656
02:000ссз5107914 0.1 1019741
05:00−2сз49835 0.1 1022437
08:00−2сз36875 0.0 1023340
11:000з34665 0.0 1025621
14:00+2зюз564877 0.0 1024951
17:00+2юз594884 0.0 1023555
20:00+2юз6105991 0.0 1023893
27 октября, ср
ср2723:00+2зюз6106093 0.0 1023832
02:00+1ююз5972100 0.0 1023571
05:00+1ююз5107389 0.0 1023502
08:000ююз598192 0.0 1023432
11:00+2ююз696743 0.3 1023601
14:00+5ююз695938 0.0 1022841
17:00+4ююз51161100 0.0 1021586
20:00+3ююз61264100 0.0 1021474